KLEMETTI Weather Reports


time (UTC)temp
C
wind
direction
speed
KPH
gust
KPH
rain 1hr
cm
rain 24hr
cm
rain mn
cm
humidity
%
barometer
mb
20260508082732 11 266 11.3 17.7 0.00 0.00 0.00 29 1026.4
20260508080734 11 258 11.3 20.9 0.00 0.00 0.00 31 1026.3
20260508074733 10 252 12.9 17.7 0.00 0.00 0.00 34 1026.1
20260508072733 11 265 11.3 14.5 0.00 0.00 0.00 37 1025.8
20260508070734 10 290 8.0 11.3 0.00 0.00 0.00 36 1025.6
20260508064732 9 276 6.4 11.3 0.00 0.00 0.00 43 1025.4
20260508062732 10 319 3.2 8.0 0.00 0.00 0.00 45 1025.2
20260508060733 9 266 6.4 9.7 0.00 0.00 0.00 51 1025.0
20260508054733 8 274 4.8 8.0 0.00 0.00 0.00 54 1024.8
20260508052733 7 271 6.4 11.3 0.00 0.00 0.00 60 1024.6
20260508050732 6 262 8.0 11.3 0.00 0.00 0.00 67 1024.4
20260508044733 5 272 8.0 11.3 0.00 0.00 0.00 74 1024.2
20260508042732 3 231 3.2 6.4 0.00 0.00 0.00 96 1023.9
20260508040732 2 237 6.4 8.0 0.00 0.00 0.00 98 1023.7
20260508034732 1 227 9.7 11.3 0.00 0.00 0.00 99 1023.6
20260508032732 0 234 9.7 11.3 0.00 0.00 0.00 99 1023.4
20260508030733 0 233 9.7 9.7 0.00 0.00 0.00 99 1023.2
20260508024732 0 210 8.0 9.7 0.00 0.00 0.00 98 1023.0
20260508022731 0 212 6.4 8.0 0.00 0.00 0.00 98 1022.8
20260508020732 0 221 8.0 9.7 0.00 0.00 0.00 98 1022.7
20260508014732 0 216 8.0 9.7 0.00 0.00 0.00 98 1022.5
20260508012732 0 217 8.0 9.7 0.00 0.00 0.00 98 1022.4
20260508010733 0 246 8.0 9.7 0.00 0.00 0.00 97 1022.2
20260508004732 1 243 6.4 9.7 0.00 0.00 0.00 97 1021.9
20260508002732 1 242 6.4 11.3 0.00 0.00 0.00 98 1021.9
20260508000734 1 229 9.7 12.9 0.00 0.00 0.00 97 1021.8
20260507234733 1 226 8.0 11.3 0.00 0.00 0.00 96 1021.5
20260507232732 2 217 8.0 12.9 0.00 0.00 0.00 94 1021.4
20260507230732 3 234 9.7 14.5 0.00 0.00 0.00 94 1021.2
20260507224731 3 235 9.7 16.1 0.00 0.00 0.00 94 1021.1
20260507222732 3 226 11.3 16.1 0.00 0.00 0.00 91 1021.1
20260507220731 3 242 8.0 12.9 0.00 0.00 0.00 91 1020.9
20260507214731 3 243 9.7 16.1 0.00 0.00 0.00 90 1020.5
20260507212731 3 251 11.3 16.1 0.00 0.00 0.00 88 1020.4
20260507210731 4 252 9.7 14.5 0.00 0.00 0.00 85 1020.3
20260507204732 4 250 12.9 17.7 0.00 0.00 0.00 84 1020.1
20260507202731 4 240 14.5 19.3 0.00 0.00 0.00 84 1019.9
20260507200732 4 257 9.7 16.1 0.00 0.00 0.00 81 1019.7
20260507194731 4 247 12.9 17.7 0.00 0.00 0.00 78 1019.5
20260507192731 5 256 12.9 17.7 0.00 0.00 0.00 74 1019.3
20260507190730 5 256 8.0 14.5 0.00 0.00 0.00 74 1019.1
20260507184731 5 268 12.9 20.9 0.00 0.00 0.00 71 1019.0
20260507180729 5 263 9.7 17.7 0.00 0.00 0.00 75 1018.8
20260507174731 5 278 12.9 20.9 0.00 0.00 0.00 75 1018.6
20260507172729 5 256 17.7 22.5 0.00 0.00 0.00 74 1018.4
20260507170729 6 262 16.1 24.1 0.00 0.00 0.00 72 1018.3
20260507164731 6 272 16.1 25.7 0.00 0.00 0.00 68 1018.0
20260507162730 6 261 19.3 27.4 0.00 0.00 0.00 72 1018.0
20260507160730 6 264 20.9 30.6 0.00 0.00 0.00 69 1017.9
20260507154730 6 264 19.3 29.0 0.00 0.00 0.00 73 1017.7
20260507152729 6 265 22.5 30.6 0.00 0.00 0.00 67 1017.7
20260507150731 6 255 22.5 32.2 0.00 0.00 0.00 72 1017.8
20260507144731 6 260 20.9 30.6 0.00 0.00 0.00 72 1017.7
20260507142731 6 264 19.3 27.4 0.00 0.00 0.00 71 1017.5
20260507140730 6 276 19.3 25.7 0.00 0.00 0.00 73 1017.3
20260507134731 6 271 19.3 30.6 0.00 0.00 0.00 73 1017.2
20260507132729 6 272 24.1 33.8 0.00 0.00 0.00 74 1017.1
20260507130730 6 263 24.1 37.0 0.00 0.00 0.00 68 1016.8
20260507124729 6 256 30.6 41.8 0.00 0.00 0.00 68 1016.7
20260507122729 7 256 22.5 33.8 0.00 0.00 0.00 58 1016.3
20260507120730 7 261 22.5 32.2 0.00 0.00 0.00 63 1016.1
20260507114730 8 263 17.7 29.0 0.00 0.00 0.00 65 1015.8
20260507112728 7 275 17.7 27.4 0.00 0.00 0.00 70 1015.7
20260507110729 7 276 16.1 24.1 0.00 0.00 0.00 69 1015.6
20260507104728 8 228 17.7 29.0 0.00 0.00 0.00 60 1015.6
20260507102728 7 252 27.4 35.4 0.00 0.00 0.00 61 1015.5
20260507100728 8 237 24.1 35.4 0.00 0.00 0.00 57 1015.3
20260507094729 9 240 17.7 27.4 0.00 0.00 0.00 50 1015.2
20260507092729 8 238 19.3 27.4 0.00 0.00 0.00 54 1015.3
20260507090729 8 256 17.7 25.7 0.00 0.00 0.00 47 1015.4
20260507084728 7 220 17.7 29.0 0.00 0.00 0.00 43 1015.3